Starlink 1276

operational
NORAD ID: 45368 Int'l Des: 2020-019 Owner: SPXS Country: US Constellation: starlink
LEOCIRCULARSTARLINK_TYPE

About Starlink 1276

Description loading...

Live Position

Loading 3D Globe...

Upcoming Passes

Altitude History

Altitude vs Time

uPlot chart will show altitude changes over time

Two-Line Element Set

1 45368U 20019J 25304.63993022 .00013310 00000-0 91022-3 0 9991
2 45368 53.0555 25.9446 0001598 85.8662 274.2510 15.06421287310280
Epoch: Oct 31, 2025 • Age: 23 hours

Current Status

Altitude 553.0 km
Velocity 7.59 km/s
Sub-Earth Point -19.60°S, 42.4°W
Launch Date Mar 18, 2020
Age 5.6 years
Type internet

Technical Details

Classification Payload
Mass 260.00 kg
Dry Mass 248.00 kg
Total Mass 260.00 kg
Length 0.20 m
Diameter 2.80 m
Span 9.00 m
Shape Box + pan
Manufacturer SPXS
Bus Type Starlink
Phase Status In Orbit
Owner/State SPXS/US

Large Constellations

Loading constellations...